Home   Weather   Ashgabat   Past weeks

Flag for Turkmenistan Past Weather in Ashgabat, Turkmenistan — Yesterday and Last 2 Weeks

Now
59 °F

Light rain. Mostly cloudy.


Feels Like: 58 °F
Forecast: 59 / 66 °F
Wind: 7 mph from Southeast

Location: Ashgabat

Current Time: Sep 30, 2016 at 6:33:49 AM

Latest Report: Sep 30, 2016 at 6:00 AM


Visibility: 6 mi

Pressure: 30.09 "Hg

Humidity: 82%

Dew Point: 54 °F

Location of AshgabatLocation

Past Weather in Ashgabat — Graph

°F

Ashgabat Temperature Yesterday

Maximum temperature yesterday: 72 °F (at 12:00 AM)
Minimum temperature yesterday: 61 °F (at 10:00 PM)
Average temperature yesterday: 67 °F

High & Low Weather Summary for the Past Weeks

 TemperatureHumidityPressure
High99 °F (Sep 15, 5:00 PM)83% (Sep 29, 11:00 PM)30.09 "Hg (Sep 29, 11:00 PM)
Low59 °F (Sep 30, 4:00 AM)16% (Sep 22, 4:00 PM)29.62 "Hg (Sep 15, 4:00 PM)
Average78 °F44%29.85 "Hg
* Reported Sep 15 5:00 AM — Sep 30 5:00 AM, Ashgabat, Weather by CustomWeather, © 2016

Note: Actual official high and low records may vary slightly from our data, if they occured in-between our weather recording intervals... More about our weather records

Advertising

Ashgabat Weather History for the Previous 24 Hours

Scroll right to see more
 ConditionsComfort  
Time TempWeatherWind HumidityBarometerVisibility
5:00 AM
Fri, Sep 30
59 °FOvercast.3 mph82%30.09 "Hg6 mi
4:00 AM59 °FOvercast.3 mph82%30.09 "HgN/A
3:00 AM61 °FOvercast.6 mph83%30.09 "HgN/A
2:00 AM61 °FOvercast.8 mph77%30.09 "HgN/A
1:00 AM61 °FOvercast.7 mph77%30.09 "HgN/A
12:00 AM61 °FOvercast.3 mph83%30.09 "HgN/A
11:00 PM
Thu, Sep 29
61 °FOvercast.7 mph83%30.09 "HgN/A
10:00 PM61 °FOvercast.14 mph77%30.07 "HgN/A
9:00 PM63 °FSprinkles. Overcast.20 mph73%30.07 "HgN/A
8:00 PM64 °FOvercast.16 mph68%30.01 "HgN/A
7:00 PM66 °FOvercast.22 mph64%29.98 "HgN/A
6:00 PM70 °FPartly sunny.10 mph57%29.95 "HgN/A
5:00 PM70 °FPartly sunny.9 mph57%29.95 "HgN/A
4:00 PM70 °FPartly sunny.17 mph57%29.92 "HgN/A
3:00 PM70 °FPartly sunny.21 mph57%29.92 "HgN/A
2:00 PM70 °FPartly sunny.23 mph53%29.92 "HgN/A
1:00 PM66 °FPartly sunny.13 mph68%29.89 "HgN/A
12:00 PM64 °FSprinkles. Mostly cloudy.17 mph73%29.92 "HgN/A
11:00 AM66 °FOvercast.20 mph64%29.92 "HgN/A
10:00 AM64 °FOvercast.26 mph68%29.89 "Hg6 mi
9:00 AM64 °FOvercast.31 mph68%29.86 "Hg3 mi
8:00 AM63 °FDense fog.35 mph73%29.83 "Hg1 mi
7:00 AM64 °FDense fog.33 mph60%29.77 "Hg1 mi
6:00 AM68 °FDense fog.33 mph53%29.74 "Hg2 mi
Weather by CustomWeather, © 2016

See weather overviewHow to use our weather pages